GCR556 ZBTJ-ZBAA

Flight info

Callsign GCR556
Flight time N/A
Altitude 15700
Route TAJ DCT VM DCT SOTMU
Aircraft E190/M-SDE3GILORVW/S

Departure

Time 2026-04-26 09:19
Airport Tianjin Binhai International Airport (ZBTJ)

Arrival

Time N/A
Airport Beijing Capital International Airport (ZBAA)
Time Latitude Longitude Altitude Speed Heading
2026-04-26 08:56 39.11218 117.34963 5 ft 0 kts 334°
2026-04-26 09:14 39.11216 117.34964 5 ft 2 kts 335°
2026-04-26 09:14 39.11205 117.34968 6 ft 4 kts 55°
2026-04-26 09:14 39.11191 117.34946 5 ft 2 kts 36°
2026-04-26 09:14 39.11173 117.34924 6 ft 4 kts 70°
2026-04-26 09:15 39.11170 117.34891 8 ft 3 kts 102°
2026-04-26 09:15 39.11172 117.34880 8 ft 0 kts 103°
2026-04-26 09:17 39.11171 117.34887 8 ft 4 kts 103°
2026-04-26 09:17 39.11165 117.34937 5 ft 5 kts 88°
2026-04-26 09:17 39.11169 117.35007 6 ft 10 kts 85°
2026-04-26 09:17 39.11168 117.35116 6 ft 13 kts 116°
2026-04-26 09:18 39.11103 117.35220 4 ft 17 kts 108°
2026-04-26 09:18 39.11162 117.35344 5 ft 19 kts 32°
2026-04-26 09:18 39.11298 117.35310 4 ft 32 kts 335°
2026-04-26 09:18 39.11806 117.35003 7 ft 129 kts 335°
2026-04-26 09:19 39.12853 117.34353 217 ft 198 kts 335°
2026-04-26 09:19 39.14223 117.33497 892 ft 242 kts 340°
2026-04-26 09:19 39.15840 117.32713 1411 ft 237 kts 345°
2026-04-26 09:19 39.17359 117.32006 2632 ft 224 kts 345°
2026-04-26 09:20 39.18810 117.31280 3989 ft 222 kts 343°
2026-04-26 09:20 39.20259 117.30542 5224 ft 241 kts 342°
2026-04-26 09:20 39.21903 117.29705 6268 ft 260 kts 341°
2026-04-26 09:20 39.23573 117.28844 7505 ft 268 kts 338°
2026-04-26 09:21 39.25317 117.27944 8893 ft 267 kts 336°
2026-04-26 09:21 39.27028 117.27066 10236 ft 270 kts 335°
2026-04-26 09:21 39.28858 117.26119 11092 ft 289 kts 336°
2026-04-26 09:21 39.30767 117.25125 12156 ft 301 kts 335°
2026-04-26 09:22 39.32734 117.24101 13381 ft 308 kts 335°
2026-04-26 09:22 39.34752 117.23048 14601 ft 315 kts 335°
2026-04-26 09:22 39.36823 117.21969 15610 ft 326 kts 335°
2026-04-26 09:22 39.38914 117.20878 15875 ft 328 kts 335°
2026-04-26 09:23 39.41037 117.19772 15954 ft 328 kts 335°
2026-04-26 09:23 39.43154 117.18666 15946 ft 327 kts 335°
2026-04-26 09:23 39.45260 117.17568 15948 ft 326 kts 335°
2026-04-26 09:23 39.47365 117.16468 15940 ft 325 kts 336°
2026-04-26 09:24 39.49460 117.15377 15942 ft 324 kts 336°
2026-04-26 09:24 39.51556 117.14283 15953 ft 324 kts 335°
2026-04-26 09:24 39.53643 117.13187 15954 ft 323 kts 335°
2026-04-26 09:24 39.55709 117.12111 15948 ft 323 kts 335°
2026-04-26 09:25 39.57792 117.11013 15948 ft 324 kts 335°
2026-04-26 09:25 39.59879 117.09919 15946 ft 323 kts 335°
2026-04-26 09:25 39.61963 117.08822 15944 ft 323 kts 335°
2026-04-26 09:25 39.64048 117.07726 15946 ft 323 kts 335°
2026-04-26 09:26 39.66136 117.06627 15945 ft 324 kts 335°
2026-04-26 09:26 39.68207 117.05535 15926 ft 314 kts 335°
2026-04-26 09:26 39.70154 117.04511 15892 ft 291 kts 335°
2026-04-26 09:26 39.71975 117.03548 15863 ft 274 kts 335°
2026-04-26 09:27 39.73702 117.02637 15863 ft 262 kts 335°
2026-04-26 09:27 39.75369 117.01755 15899 ft 255 kts 335°
2026-04-26 09:27 39.76998 117.00892 15909 ft 252 kts 335°
2026-04-26 09:27 39.78619 117.00035 15930 ft 251 kts 335°
2026-04-26 09:28 39.80227 116.99183 15934 ft 249 kts 335°
2026-04-26 09:28 39.81831 116.98334 15926 ft 249 kts 335°
2026-04-26 09:28 39.83431 116.97486 15930 ft 248 kts 335°
2026-04-26 09:28 39.85008 116.96651 15929 ft 248 kts 335°
2026-04-26 09:29 39.86609 116.95804 15930 ft 248 kts 335°
2026-04-26 09:29 39.88206 116.94956 15928 ft 248 kts 335°
2026-04-26 09:29 39.89804 116.94110 15925 ft 247 kts 335°
2026-04-26 09:29 39.91399 116.93263 15925 ft 247 kts 335°
2026-04-26 09:30 39.92999 116.92415 15795 ft 250 kts 335°
2026-04-26 09:30 39.94618 116.91561 15548 ft 251 kts 335°
2026-04-26 09:30 39.96239 116.90712 15311 ft 250 kts 335°
2026-04-26 09:30 39.97841 116.89854 15053 ft 248 kts 334°
2026-04-26 09:31 39.99415 116.89013 14810 ft 246 kts 334°
2026-04-26 09:31 40.00998 116.88168 14566 ft 245 kts 334°
2026-04-26 09:31 40.02573 116.87327 14321 ft 244 kts 334°
2026-04-26 09:31 40.04145 116.86489 14083 ft 243 kts 335°
2026-04-26 09:32 40.05706 116.85661 13847 ft 241 kts 335°
2026-04-26 09:32 40.07257 116.84832 13593 ft 239 kts 335°
2026-04-26 09:32 40.08771 116.84024 13302 ft 235 kts 335°
2026-04-26 09:32 40.10305 116.83202 13082 ft 239 kts 335°
2026-04-26 09:33 40.11849 116.82376 12841 ft 240 kts 335°
2026-04-26 09:33 40.13377 116.81560 12570 ft 240 kts 335°
2026-04-26 09:33 40.14919 116.80736 12299 ft 238 kts 335°
2026-04-26 09:33 40.16448 116.79917 12034 ft 237 kts 335°
2026-04-26 09:34 40.17884 116.78926 11878 ft 228 kts 323°
2026-04-26 09:34 40.19007 116.77580 11834 ft 210 kts 309°
2026-04-26 09:34 40.19771 116.76035 11610 ft 197 kts 296°
2026-04-26 09:34 40.20238 116.74397 11517 ft 188 kts 289°
2026-04-26 09:35 40.20604 116.72741 11053 ft 199 kts 284°
2026-04-26 09:35 40.20747 116.70844 10518 ft 211 kts 271°
2026-04-26 09:35 40.20584 116.68943 10100 ft 200 kts 262°
2026-04-26 09:35 40.20358 116.67922 11279 ft 83 kts 264°
2026-04-26 09:36 40.20155 116.66860 10445 ft 149 kts 257°
2026-04-26 09:36 40.19724 116.65456 9548 ft 182 kts 243°